Location: Batesville
(34.7480°N, 83.6110°W)
Time: 10:55:11
(UTC-05:00)

Envisat - Pass Details

Date: 23 January 2018
Orbit: 764 x 766 km, 98.2° (Epoch: 24 February)

Event Time Altitude Azimuth Distance (km) Brightness Sun altitude
Exits shadow 20:16:41 17° 351° (N) 1,893 5.0 -29.0°
Drops below altitude 10° 20:17:44 10° 350° (N) 2,308 5.5 -29.3°
Sets 20:20:03 0° 349° (N) 3,237 6.3 -29.7°
